Iguazu, Argentina

11:46 PM ART on September 26, 2016 (GMT -0300)
Iguazu

Weather History for 87097 - July, 2013

Change the Weather History Date:

Tuesday, July 16, 2013

  Actual Average Record
Temperature  
Mean Temperature 58 °F -  
Max Temperature 71 °F - - ()
Min Temperature 45 °F - - ()
Degree Days  
Heating Degree Days 7    
Growing Degree Days 8 (Base 50)    
Moisture  
Dew Point 50 °F    
Average Humidity 84    
Maximum Humidity 100    
Minimum Humidity 43    
Precipitation  
Precipitation 0.00 in - - ()
Sea Level Pressure  
Sea Level Pressure 30.15 in    
Wind  
Wind Speed 4 mph ()    
Max Wind Speed 11 mph    
Max Gust Speed -    
Visibility 6.0 miles    
Events Fog    
T = Trace of Precipitation, MM = Missing Value Source: Averaged Metar Reports

Daily Weather History Graph

Daily Weather History Graph

Search for Another Location

Airport or City:

Trip Planner

Search our weather history database for the weather conditions in past years. The results will help you decide how hot, cold, wet, or windy it might be!

Date:

Astronomy

Jul. 16, 2013 Rise Set
Actual Time 7:23 AM ART 6:04 PM ART
Civil Twilight 6:58 AM ART 6:29 PM ART
Nautical Twilight 6:30 AM ART 6:57 PM ART
Astronomical Twilight 6:02 AM ART 7:25 PM ART
Moon 12:27 PM ART (7/16) 12:49 AM ART (7/16)
Length of Visible Light 11h 31m
Length of Day
10h 41m
First Quarter, 55% of the Moon is Illuminated
Jul 16
First Quarter
Jul 22
Full
Jul 29
Last Quarter
Aug 6
New
Aug 14
First Quarter

Hourly Weather History & Observations

Time (ART) Temp. Windchill Dew Point Humidity Pressure Visibility Wind Dir Wind Speed Gust Speed Precip Events Conditions
12:00 AM 53.6 °F - 50.0 °F 88% 30.18 in - South 10.4 mph - N/A   Clear
1:00 AM 53.6 °F - 50.0 °F 88% 30.15 in - Calm Calm - N/A   Clear
2:00 AM 51.8 °F - 50.0 °F 94% 30.15 in - South 6.9 mph - N/A   Clear
3:00 AM 50 °F - 49 °F 93% 30.13 in 12 mi South 11.2 mph - -  
3:00 AM 50.0 °F - 48.2 °F 94% 30.15 in - South 5.8 mph - N/A   Clear
4:00 AM 50.0 °F - 48.2 °F 94% 30.15 in - South 5.8 mph - N/A   Clear
5:00 AM 46.4 °F - 46.4 °F 100% 30.15 in - Calm Calm - N/A   Clear
6:00 AM 46.4 °F - 46.4 °F 100% 30.15 in - Calm Calm - N/A   Clear
7:00 AM 46.4 °F - 46.4 °F 100% 30.15 in - Calm Calm - N/A   Clear
7:40 AM 44.6 °F 42.2 °F 44.6 °F 100% 30.18 in 0.4 mi NE 4.6 mph - N/A Fog Patches of Fog
8:00 AM 46.4 °F - 46.4 °F 100% 30.18 in 0.1 mi NNE 2.3 mph - N/A Fog Fog
8:25 AM 46.4 °F - 46.4 °F 100% 30.18 in 0.9 mi East 2.3 mph - N/A Fog Patches of Fog
8:35 AM 46.4 °F - 46.4 °F 100% 30.18 in 5.0 mi ENE 2.3 mph - N/A   Unknown
9:00 AM 49 °F - 49 °F 100% 30.17 in 6 mi NNE 4.6 mph - - Fog Light Fog
9:00 AM 50.0 °F - 50.0 °F 100% 30.18 in 5.6 mi NNE 4.6 mph - N/A   Unknown
10:00 AM 55.4 °F - 51.8 °F 88% 30.21 in - NE 4.6 mph - N/A   Clear
11:00 AM 60.8 °F - 53.6 °F 77% 30.21 in - NE 6.9 mph - N/A   Clear
12:00 PM 64.4 °F - 53.6 °F 68% 30.18 in - North 5.8 mph - N/A   Clear
1:00 PM 66.2 °F - 51.8 °F 60% 30.18 in - NE 3.5 mph - N/A   Clear
2:00 PM 69.8 °F - 48.2 °F 46% 30.15 in - NNE 3.5 mph - N/A   Clear
3:00 PM 69 °F - 52 °F 43% 30.09 in 12 mi NE 4.5 mph - -  
3:00 PM 69.8 °F - 51.8 °F 53% 30.12 in - NE 2.3 mph - N/A   Clear
4:00 PM 69.8 °F - 53.6 °F 56% 30.09 in - East 3.5 mph - N/A   Clear
5:00 PM 69.8 °F - 53.6 °F 56% 30.09 in - North 4.6 mph - N/A   Clear
7:00 PM 62.6 °F - 55.4 °F 77% 30.09 in - SSW 2.3 mph - N/A   Clear
8:00 PM 57.2 °F - 55.4 °F 94% 30.12 in - NE 2.3 mph - N/A   Clear
9:00 PM 57 °F - 53 °F 83% 30.11 in 12 mi East 4.5 mph - -  
9:00 PM 57.2 °F - 53.6 °F 88% 30.12 in - East 2.3 mph - N/A   Clear
10:00 PM 55.4 °F - 51.8 °F 88% 30.15 in - SSE 2.3 mph - N/A   Clear
11:00 PM 55.4 °F - 51.8 °F 88% 30.15 in - Calm Calm - N/A   Clear